{"data":{"norad_id":69003,"epoch":"2026-05-25T00:00:02.000160Z","epoch_age_seconds":74427,"freshness":"FRESH","line1":"1 69003U 26100Z   26145.00002315  .00030290  00000+0  29971-2 0  9999","line2":"2 69003  97.7366  42.8821 0002190 181.5163 181.2379 14.91799615  1307","mean_motion":14.91799615,"eccentricity":0.000219,"inclination_deg":97.7366,"raan_deg":42.8821,"arg_perigee_deg":181.5163,"mean_anomaly_deg":181.2379,"bstar":0.0029971,"rev_number":130,"period_min":96.527709587859,"perigee_km":590.79766994231,"apogee_km":593.85073194833,"semimajor_km":6970.4612009453,"source":"CELESTRAK","updated_at":"2026-05-25T13:38:09.037292Z"}}